Radiation Dose at Monitoring Post of Fukushima Daini Nuclear Power Station
Date,Time,MP-1(microSv/h),MP-2(microSv/h),MP-3(microSv/h),MP-4(microSv/h),MP-5(microSv/h),MP-6(microSv/h),MP-7(microSv/h),Wind Direction,Wind Velocity(m/s),Rain
2023/03/23,00:00,0.152,0.136,0.216,0.212,0.213,0.121,0.077,south,3.9,No
2023/03/23,00:10,0.153,0.136,0.216,0.212,0.212,0.122,0.077,south,4.0,No
2023/03/23,00:20,0.152,0.137,0.216,0.212,0.212,0.121,0.077,south,3.9,No
2023/03/23,00:30,0.152,0.137,0.217,0.212,0.213,0.122,0.077,south,3.5,No
2023/03/23,00:40,0.152,0.138,0.217,0.213,0.214,0.122,0.077,south,3.4,Yes
2023/03/23,00:50,0.152,0.137,0.217,0.213,0.212,0.122,0.077,south-southwest,3.6,No
2023/03/23,01:00,0.153,0.136,0.216,0.211,0.214,0.121,0.077,south,4.5,No
2023/03/23,01:10,0.153,0.137,0.216,0.212,0.212,0.123,0.077,south,4.7,Yes
2023/03/23,01:20,0.152,0.138,0.217,0.211,0.211,0.121,0.079,south,4.4,No
2023/03/23,01:30,0.153,0.136,0.217,0.212,0.214,0.122,0.078,south,5.1,No
2023/03/23,01:40,0.152,0.137,0.216,0.212,0.213,0.122,0.077,south,4.7,Yes
2023/03/23,01:50,0.153,0.138,0.217,0.211,0.213,0.122,0.078,south,5.1,Yes
2023/03/23,02:00,0.152,0.136,0.217,0.211,0.211,0.122,0.077,south,4.6,No
2023/03/23,02:10,0.153,0.137,0.216,0.212,0.212,0.121,0.078,south,5.1,No
2023/03/23,02:20,0.153,0.138,0.215,0.212,0.212,0.122,0.077,south,5.7,No
2023/03/23,02:30,0.152,0.137,0.216,0.213,0.211,0.122,0.078,south,4.9,Yes
2023/03/23,02:40,0.152,0.138,0.216,0.212,0.213,0.122,0.078,south,5.7,Yes
2023/03/23,02:50,0.153,0.136,0.217,0.212,0.213,0.122,0.078,south,5.1,Yes
2023/03/23,03:00,0.152,0.136,0.217,0.214,0.213,0.121,0.077,south,5.8,No
2023/03/23,03:10,0.153,0.136,0.217,0.212,0.212,0.121,0.077,south,5.6,Yes
2023/03/23,03:20,0.153,0.135,0.216,0.212,0.212,0.121,0.077,south,6.3,Yes
2023/03/23,03:30,0.152,0.136,0.217,0.213,0.213,0.123,0.077,south,5.5,No
2023/03/23,03:40,0.152,0.136,0.215,0.212,0.211,0.121,0.077,south,4.9,No
2023/03/23,03:50,0.153,0.138,0.217,0.211,0.212,0.121,0.077,south,5.1,No
2023/03/23,04:00,0.152,0.137,0.216,0.212,0.212,0.122,0.077,south,5.6,No
2023/03/23,04:10,0.153,0.137,0.217,0.212,0.212,0.122,0.078,south,6.0,No
2023/03/23,04:20,0.152,0.137,0.216,0.212,0.213,0.121,0.078,south,6.6,No
2023/03/23,04:30,0.152,0.137,0.216,0.212,0.211,0.122,0.077,south,6.8,No
2023/03/23,04:40,0.153,0.136,0.217,0.212,0.213,0.122,0.078,south,7.1,No
2023/03/23,04:50,0.152,0.137,0.217,0.212,0.212,0.122,0.078,south,7.3,No
2023/03/23,05:00,0.153,0.136,0.217,0.211,0.211,0.122,0.077,south-southwest,7.3,Yes
2023/03/23,05:10,0.153,0.138,0.217,0.210,0.213,0.122,0.077,south-southwest,6.1,No
2023/03/23,05:20,0.152,0.137,0.216,0.211,0.212,0.122,0.077,south,6.1,No
2023/03/23,05:30,0.152,0.138,0.215,0.212,0.213,0.122,0.077,south,5.6,No
2023/03/23,05:40,0.153,0.137,0.216,0.212,0.212,0.121,0.077,south,5.9,No
2023/03/23,05:50,0.152,0.137,0.216,0.211,0.214,0.121,0.077,south,6.8,No
2023/03/23,06:00,0.152,0.138,0.216,0.210,0.214,0.121,0.078,south,7.3,Yes
2023/03/23,06:10,0.153,0.137,0.217,0.212,0.211,0.121,0.078,south,7.0,No
2023/03/23,06:20,0.153,0.136,0.215,0.212,0.213,0.121,0.077,south,6.8,No
2023/03/23,06:30,0.152,0.137,0.216,0.211,0.212,0.121,0.078,south,7.0,No
2023/03/23,06:40,0.152,0.136,0.216,0.211,0.212,0.121,0.078,south,6.4,No
2023/03/23,06:50,0.153,0.137,0.216,0.210,0.211,0.121,0.078,south,6.2,No
2023/03/23,07:00,0.153,0.136,0.216,0.213,0.212,0.121,0.078,south,5.9,No
2023/03/23,07:10,0.152,0.137,0.216,0.210,0.212,0.121,0.077,south,5.9,No
2023/03/23,07:20,0.153,0.137,0.215,0.212,0.213,0.121,0.077,south-southeast,6.0,No
2023/03/23,07:30,0.152,0.136,0.215,0.210,0.213,0.121,0.077,south,5.3,No
2023/03/23,07:40,0.152,0.136,0.216,0.211,0.210,0.121,0.077,south,5.2,No
2023/03/23,07:50,0.152,0.137,0.215,0.210,0.212,0.120,0.077,south,4.9,No
2023/03/23,08:00,0.153,0.136,0.215,0.212,0.212,0.121,0.077,south-southeast,5.3,No
2023/03/23,08:10,0.152,0.137,0.216,0.210,0.213,0.121,0.077,south-southeast,5.5,No
2023/03/23,08:20,0.153,0.136,0.215,0.212,0.210,0.120,0.077,south-southeast,5.9,No
2023/03/23,08:30,0.152,0.137,0.217,0.210,0.212,0.120,0.076,south,5.9,No
2023/03/23,08:40,0.152,0.136,0.215,0.212,0.212,0.121,0.077,south-southeast,5.8,No
2023/03/23,08:50,0.151,0.137,0.215,0.211,0.211,0.120,0.076,south-southeast,6.1,No
2023/03/23,09:00,0.152,0.135,0.214,0.212,0.213,0.122,0.077,south-southeast,6.3,No
2023/03/23,09:10,0.151,0.136,0.216,0.211,0.210,0.121,0.077,south,7.6,No
2023/03/23,09:20,0.153,0.135,0.215,0.211,0.213,0.121,0.077,south,6.8,Yes
2023/03/23,09:30,0.152,0.136,0.215,0.211,0.212,0.121,0.077,south,6.4,No
2023/03/23,09:40,0.151,0.136,0.215,0.211,0.212,0.121,0.077,south,5.9,No
2023/03/23,09:50,0.153,0.136,0.214,0.213,0.213,0.122,0.077,south,6.6,No
2023/03/23,10:00,0.149,0.137,0.217,0.211,0.211,0.121,0.077,south,6.9,No
2023/03/23,10:10,0.153,0.136,0.215,0.211,0.212,0.121,0.076,south-southeast,6.9,No
2023/03/23,10:20,0.153,0.135,0.214,0.212,0.211,0.121,0.077,south-southeast,7.0,No
2023/03/23,10:30,0.151,0.137,0.214,0.210,0.211,0.121,0.077,south-southeast,8.2,No
2023/03/23,10:40,0.151,0.135,0.216,0.210,0.210,0.120,0.077,south,8.7,No
2023/03/23,10:50,0.152,0.137,0.215,0.211,0.213,0.122,0.077,south,7.8,No
2023/03/23,11:00,0.151,0.136,0.217,0.211,0.211,0.121,0.077,south-southeast,7.4,No
2023/03/23,11:10,0.152,0.136,0.215,0.213,0.214,0.121,0.077,south-southeast,9.6,No
2023/03/23,11:20,0.152,0.137,0.215,0.211,0.211,0.121,0.076,south-southeast,9.5,Yes
2023/03/23,11:30,0.152,0.137,0.217,0.212,0.212,0.121,0.077,south-southeast,9.2,No
2023/03/23,11:40,0.152,0.136,0.215,0.211,0.213,0.121,0.077,south,10.9,Yes
2023/03/23,11:50,0.152,0.136,0.217,0.211,0.211,0.121,0.077,south,10.9,Yes
2023/03/23,12:00,0.154,0.137,0.216,0.211,0.213,0.121,0.077,south,10.1,Yes
2023/03/23,12:10,0.152,0.137,0.217,0.211,0.211,0.122,0.077,south,8.8,Yes
2023/03/23,12:20,0.153,0.136,0.216,0.212,0.214,0.121,0.078,south,7.4,No
2023/03/23,12:30,0.152,0.137,0.217,0.212,0.212,0.120,0.077,south-southeast,8.1,Yes
2023/03/23,12:40,0.151,0.136,0.216,0.212,0.212,0.121,0.078,south-southeast,8.7,No
2023/03/23,12:50,0.152,0.137,0.214,0.211,0.213,0.122,0.077,south-southeast,8.9,No
2023/03/23,13:00,0.153,0.137,0.217,0.210,0.211,0.121,0.076,south-southeast,11.1,No
2023/03/23,13:10,0.151,0.136,0.215,0.212,0.212,0.121,0.076,south-southeast,10.6,No
2023/03/23,13:20,0.153,0.138,0.216,0.211,0.212,0.120,0.077,south-southeast,10.6,Yes
2023/03/23,13:30,0.152,0.135,0.217,0.213,0.212,0.121,0.076,south-southeast,9.5,No
2023/03/23,13:40,0.152,0.138,0.214,0.212,0.213,0.121,0.077,south-southeast,9.3,Yes
2023/03/23,13:50,0.153,0.137,0.217,0.213,0.212,0.122,0.077,south-southeast,9.6,Yes
2023/03/23,14:00,0.152,0.137,0.215,0.212,0.213,0.121,0.077,south-southeast,10.1,Yes
2023/03/23,14:10,0.153,0.137,0.216,0.212,0.213,0.122,0.077,south-southeast,9.8,Yes
2023/03/23,14:20,0.153,0.137,0.218,0.213,0.212,0.122,0.077,south-southeast,8.7,Yes
2023/03/23,14:30,0.151,0.138,0.218,0.211,0.213,0.122,0.077,south,8.6,Yes
2023/03/23,14:40,0.153,0.138,0.217,0.213,0.211,0.121,0.078,south,8.1,Yes
2023/03/23,14:50,0.152,0.137,0.217,0.212,0.214,0.122,0.077,south,8.1,Yes
2023/03/23,15:00,0.153,0.138,0.216,0.214,0.212,0.123,0.079,south-southeast,6.8,Yes
2023/03/23,15:10,0.153,0.139,0.217,0.211,0.214,0.123,0.078,south-southeast,6.7,Yes
2023/03/23,15:20,0.154,0.137,0.218,0.213,0.213,0.123,0.078,south-southeast,7.9,Yes
2023/03/23,15:30,0.152,0.138,0.218,0.213,0.215,0.122,0.078,south,9.3,Yes
2023/03/23,15:40,0.155,0.138,0.217,0.213,0.213,0.123,0.079,south,8.8,Yes
2023/03/23,15:50,0.154,0.138,0.217,0.213,0.215,0.123,0.078,south,7.9,Yes
2023/03/23,16:00,0.154,0.137,0.216,0.212,0.211,0.123,0.079,south,8.5,Yes
2023/03/23,16:10,0.152,0.138,0.216,0.212,0.214,0.123,0.079,south,8.4,Yes
2023/03/23,16:20,0.154,0.137,0.216,0.211,0.211,0.122,0.079,south,7.4,Yes
2023/03/23,16:30,0.152,0.137,0.215,0.211,0.213,0.122,0.078,south,6.9,Yes
2023/03/23,16:40,0.154,0.137,0.216,0.211,0.211,0.123,0.079,south-southeast,5.9,Yes
2023/03/23,16:50,0.152,0.138,0.215,0.212,0.212,0.122,0.079,south-southeast,5.5,Yes
2023/03/23,17:00,0.154,0.138,0.215,0.211,0.211,0.123,0.078,south-southeast,5.2,Yes
2023/03/23,17:10,0.153,0.138,0.214,0.210,0.212,0.123,0.079,south,5.2,Yes
2023/03/23,17:20,-,-,-,-,-,-,-,-,-,-
2023/03/23,17:30,0.153,0.138,0.213,0.210,0.211,0.123,0.080,south,3.1,Yes
2023/03/23,17:40,0.152,0.137,0.214,0.211,0.210,0.122,0.078,south,3.9,Yes
2023/03/23,17:50,0.152,0.137,0.212,0.209,0.211,0.122,0.080,south,3.2,Yes
2023/03/23,18:00,0.152,0.138,0.213,0.209,0.211,0.122,0.079,south,2.8,Yes
2023/03/23,18:10,0.152,0.137,0.210,0.208,0.210,0.122,0.079,south,3.0,Yes
2023/03/23,18:20,0.152,0.137,0.211,0.208,0.210,0.122,0.079,south,3.4,Yes
2023/03/23,18:30,0.151,0.136,0.212,0.207,0.209,0.122,0.079,south,4.5,Yes
2023/03/23,18:40,0.150,0.137,0.211,0.209,0.210,0.120,0.078,south,4.9,Yes
2023/03/23,18:50,0.152,0.135,0.211,0.205,0.209,0.121,0.078,south,5.1,Yes
2023/03/23,19:00,0.151,0.136,0.210,0.207,0.208,0.121,0.078,south,5.2,Yes
2023/03/23,19:10,0.151,0.136,0.210,0.206,0.209,0.120,0.078,south,5.9,Yes
2023/03/23,19:20,0.150,0.137,0.210,0.205,0.210,0.120,0.079,south,5.9,Yes
2023/03/23,19:30,0.151,0.136,0.209,0.205,0.208,0.120,0.078,south,6.6,Yes
2023/03/23,19:40,0.150,0.136,0.210,0.204,0.210,0.120,0.080,south,7.1,Yes
2023/03/23,19:50,0.152,0.136,0.209,0.205,0.208,0.121,0.079,south,7.0,Yes
2023/03/23,20:00,0.150,0.135,0.209,0.203,0.210,0.121,0.080,south,7.2,Yes
2023/03/23,20:10,0.150,0.135,0.208,0.205,0.208,0.121,0.079,south-southeast,8.3,Yes
2023/03/23,20:20,0.150,0.135,0.209,0.203,0.210,0.120,0.080,south,8.5,Yes
2023/03/23,20:30,0.150,0.136,0.208,0.204,0.208,0.120,0.079,south,7.1,Yes
2023/03/23,20:40,0.150,0.137,0.209,0.202,0.209,0.121,0.080,south,8.7,Yes
2023/03/23,20:50,0.151,0.136,0.209,0.206,0.209,0.120,0.080,south,9.3,Yes
2023/03/23,21:00,0.150,0.137,0.209,0.203,0.210,0.121,0.080,south,9.6,Yes
2023/03/23,21:10,0.150,0.136,0.209,0.204,0.209,0.120,0.079,south,10.3,Yes
2023/03/23,21:20,0.150,0.136,0.208,0.204,0.209,0.120,0.080,south,10.1,Yes
2023/03/23,21:30,0.150,0.135,0.208,0.205,0.208,0.119,0.080,south-southeast,12.2,Yes
2023/03/23,21:40,0.150,0.137,0.208,0.204,0.210,0.120,0.080,south,12.0,Yes
2023/03/23,21:50,0.151,0.136,0.209,0.204,0.208,0.119,0.079,south,11.2,Yes
2023/03/23,22:00,0.149,0.135,0.208,0.205,0.211,0.119,0.078,south,10.9,Yes
2023/03/23,22:10,0.149,0.134,0.209,0.203,0.207,0.119,0.079,south,9.6,Yes
2023/03/23,22:20,0.148,0.135,0.207,0.205,0.210,0.118,0.078,south,8.2,Yes
2023/03/23,22:30,0.150,0.134,0.206,0.203,0.208,0.119,0.078,south,9.0,Yes
2023/03/23,22:40,0.147,0.134,0.208,0.203,0.209,0.119,0.079,south,10.0,Yes
2023/03/23,22:50,0.148,0.133,0.207,0.203,0.207,0.119,0.078,south,10.3,Yes
2023/03/23,23:00,0.147,0.135,0.207,0.203,0.209,0.119,0.077,south,10.4,Yes
2023/03/23,23:10,0.148,0.134,0.207,0.203,0.207,0.118,0.078,south,10.7,Yes
2023/03/23,23:20,0.149,0.135,0.208,0.204,0.210,0.118,0.078,south,11.2,Yes
2023/03/23,23:30,0.148,0.133,0.207,0.204,0.207,0.118,0.078,south-southwest,11.2,Yes
2023/03/23,23:40,0.147,0.134,0.209,0.203,0.208,0.118,0.076,south,11.2,No
2023/03/23,23:50,0.147,0.134,0.207,0.203,0.208,0.117,0.076,south,10.7,Yes
